#timestamp,LO_Frequency,Hit,StdDev 
1514084415.9,286046992.5,N
1514084435.7,286046997.5,N
1514084455.6,286047000.2,N
1514084475.4,286046999.3,N
1514084495.2,286046995.3,N
1514084515.0,286046994.6,N
1514084516.0,286046994.6,N
1514084535.8,286046994.1,N
1514084555.6,286046993.8,N
1514084575.4,286046990.7,N
1514084595.3,286046991.6,N
1514084615.1,286046992.4,N
1514084635.8,286046992.3,N
1514084655.7,286046994.8,N
1514084675.5,286046995.7,N
1514084695.3,286046997.6,N
1514084715.2,286046998.2,N
1514084735.9,286047002.1,N
1514084755.7,286047004.3,N
1514084775.6,286047001.5,N
1514084795.4,286046999.2,N
1514084815.2,286046997.9,N
1514084835.0,286046992.4,N
1514084835.9,286046992.4,N
1514084855.8,286046993.0,N
1514084875.6,286046992.3,N
1514084895.4,286046994.4,N
1514084915.3,286046994.9,N
1514084935.1,286046997.1,N
1514084955.8,286046995.9,N
1514084975.7,286046991.7,N
1514084995.5,286046993.4,N
1514085015.3,286046994.6,N
1514085035.2,286046990.9,N
1514085055.9,286046991.0,N
1514085075.7,286046989.7,Y
1514085095.6,286046992.6,P
1514085115.4,286046990.4,P
1514085135.2,286046990.8,P
1514085155.1,286046993.5,Y
1514085156.0,286046993.5,P
1514085175.8,286047005.8,P
1514085195.6,286047007.5,N
1514085215.5,286047007.7,N
1514085235.3,286047008.1,N
1514085255.1,286047008.7,N
1514085275.8,286047007.7,N
1514085295.7,286047008.2,N
1514085315.5,286047006.5,N
1514085335.3,286047008.0,N
1514085355.2,286047005.6,N
1514085375.9,286047000.4,N
1514085395.7,286047000.5,N
1514085415.6,286047001.0,N
1514085435.4,286046997.1,N
1514085455.2,286047002.2,N
1514085475.1,286047002.3,N
1514085476.0,286047002.3,N
1514085495.8,286046999.8,N
1514085515.6,286047002.5,N
1514085535.5,286047003.7,N
1514085555.3,286047005.7,N
1514085575.1,286047005.5,N
1514085595.8,286047004.6,N
1514085615.7,286047003.7,N
1514085635.5,286047008.1,N
1514085655.3,286047001.7,N
1514085675.2,286047004.1,N
1514085695.9,286047001.7,N
1514085715.7,286047003.3,N
1514085735.6,286047004.6,N
1514085755.4,286047003.9,N
1514085775.2,286047007.3,N
1514085795.0,286047007.0,N
1514085796.0,286047007.0,N
1514085815.8,286047008.8,Y
1514085835.6,286047001.7,P
1514085855.5,286047003.6,N
1514085875.3,286047002.2,N
1514085895.1,286047000.9,N
1514085915.8,286047000.1,N
1514085935.7,286047005.9,Y
1514085955.5,286047005.9,P
1514085975.3,286047003.7,N
1514085995.2,286047003.5,N
1514086015.0,286047006.6,Y
1514086015.9,286047006.6,P
1514086035.8,286047003.3,N
1514086055.6,286047003.2,N
1514086075.4,286047004.2,Y
1514086095.3,286046999.5,P
1514086115.1,286046999.1,N
1514086116.0,286046999.1,N
1514086135.8,286046999.2,N
1514086155.7,286046997.5,N
1514086175.5,286046998.8,N
1514086195.3,286047003.9,N
1514086215.1,286046998.2,N
1514086235.9,286046998.9,N
1514086255.7,286047002.2,N
1514086275.5,286047004.7,N
1514086295.4,286047010.8,Y
1514086315.2,286047009.5,P
1514086335.0,286047010.7,N
1514086335.9,286047010.7,N
1514086355.8,286047016.6,Y
1514086375.6,286047007.5,P
1514086395.4,286047007.6,P
1514086415.3,286047009.1,P
1514086435.1,286047007.6,Y
1514086455.8,286046997.5,P
1514086475.7,286046995.1,N
1514086495.5,286046995.0,N
1514086515.3,286046999.4,N
1514086535.2,286046995.6,N
1514086555.9,286046993.3,N
1514086575.7,286046993.0,N
1514086595.6,286046992.8,N
1514086615.4,286046990.4,N
1514086635.2,286046995.7,N
1514086655.1,286046992.5,N
1514086656.0,286046992.5,N
1514086675.8,286046992.7,N
1514086695.6,286046992.1,N
1514086715.4,286046990.3,N
1514086735.3,286046989.7,N
1514086755.1,286046986.0,Y
1514086775.9,286046990.6,P
1514086795.7,286046991.0,P
1514086815.5,286046996.4,N
1514086835.3,286046996.2,N
1514086855.2,286046992.6,N
1514086875.0,286046997.6,N
1514086875.9,286046997.6,N
1514086895.7,286046995.2,N
1514086915.6,286046997.0,N
1514086935.4,286046992.2,Y
1514086955.2,286046990.6,P
1514086975.1,286046990.8,P
1514086976.0,286046990.8,P
1514086995.8,286046996.2,N
1514087015.6,286047001.0,N
1514087035.5,286047003.4,N
1514087055.3,286047006.5,N
1514087075.1,286047006.3,N
1514087095.9,286047010.4,N
1514087115.7,286047012.5,N
1514087135.5,286047018.6,N
1514087155.4,286047014.1,N
1514087175.2,286047015.3,N
1514087195.0,286047016.1,N
1514087195.9,286047016.1,N
1514087215.8,286047024.3,N
1514087235.6,286047025.1,N
1514087255.4,286047027.6,N
1514087275.2,286047032.9,N
1514087295.1,286047034.1,N
1514087296.0,286047034.1,N
1514087315.8,286047034.4,N
1514087335.6,286047023.7,N
1514087355.5,286047022.1,N
1514087375.3,286047026.8,N
1514087395.1,286047031.1,N
1514087415.9,286047032.4,N
1514087435.7,286047027.4,N
1514087455.5,286047030.4,N
1514087475.4,286047038.0,N
1514087495.2,286047035.3,N
1514087515.0,286047039.6,N
1514087515.9,286047039.6,Y
1514087535.8,286047014.6,P
1514087555.6,286047012.7,P
1514087575.4,286047012.8,P
1514087595.3,286047011.2,Y
1514087615.1,286046996.3,P
1514087616.0,286046996.3,N
1514087635.8,286046991.8,N
1514087655.7,286046989.7,N
1514087675.5,286046989.7,N
1514087695.3,286046986.7,N
1514087715.2,286046989.0,N
1514087735.9,286046989.5,N
1514087755.7,286046986.9,N
1514087775.5,286046986.7,N
1514087795.4,286046986.4,N
1514087815.2,286046980.9,N
1514087835.0,286046980.1,N
1514087835.9,286046980.1,N
1514087855.8,286046978.3,N
1514087875.6,286046974.3,Y
1514087895.4,286046984.8,P
1514087915.3,286046982.5,P
1514087935.1,286046984.0,P
1514087955.8,286046983.4,Y
1514087975.7,286046994.0,P
1514087995.5,286046998.1,N
